Location: Newark
(16.3678°N, 77.8722°E)
Time: 03:17:24
(UTC+00:00)

S-56A Canister/Altair - Pass Details

Date: 16 December 2019
Orbit: 634 x 2498 km, 38.9° (Epoch: 17 January)

Event Time Altitude Azimuth Distance (km) Brightness Sun altitude
Rises 02:38:53 0° 256° (WSW) 4,660 11.1 18.2°
Reaches altitude 10° 02:41:46 10° 262° (W) 3,912 10.8 18.8°
Maximum altitude 02:52:10 48° 334° (NNW) 2,602 10.1 20.9°
Drops below altitude 10° 03:06:05 10° 45° (NE) 5,119 11.9 23.6°
Sets 03:10:33 0° 50° (NE) 6,173 12.3 24.5°
